Location: Warszawa
(52.2500°N, 21.0000°E)
Time: 14:48:27
(UTC+01:00)

Vanguard 2 - Pass Details

Date: 13 February 2023
Orbit: 553 x 2927 km, 32.9° (Epoch: 24 March)

Event Time Altitude Azimuth Distance (km) Brightness Sun altitude
Rises 18:18:36 0° 210° (SSW) 4,010 11.7 -14.8°
Reaches altitude 10° 18:21:58 10° 193° (SSW) 3,404 11.0 -15.3°
Maximum altitude 18:27:55 20° 151° (SSE) 3,298 10.5 -16.2°
Enters shadow 18:33:21 14° 120° (ESE) 4,171 10.7 -17.0°
Drops below altitude 10° 18:35:48 10° 112° (ESE) 4,717 - -17.4°
Sets 18:41:43 0° 99° (E) 6,152 - -18.3°
